Regional Weather Roundup
Issued by NWS Upton, NY

Home | Current Version | Previous Version | Text Only | Print | Product List | Glossary On
Versions: 1 2 3 4 5 6 7 8 9 10 11 12 13 14 15 16 17 18 19 20 21 22 23 24 25 26 27 28 29 30 31 32 33 34 35 36 37 38 39 40 41 42 43 44 45 46 47 48 49 50
000
ASUS41 KOKX 222205
RWROKX

REGIONAL WEATHER ROUNDUP
NATIONAL WEATHER SERVICE NEW YORK NY
600 PM EDT FRI AUG 22 2014

NOTE: "FAIR" INDICATES FEW OR NO CLOUDS BELOW 12,000 FEET WITH NO
SIGNIFICANT WEATHER AND/OR OBSTRUCTIONS TO VISIBILITY.

NYZ071-072-176-178-NJZ106-104-222300-
NEW YORK CITY METRO AREA


CITY           SKY/WX    TMP DP  RH WIND       PRES   REMARKS
CENTRAL PARK   CLOUDY    69  59  70 VRB3      30.06R
LAGUARDIA APRT CLOUDY    68  61  78 VRB5      30.03S
KENNEDY INTL   CLOUDY    71  62  73 E9        30.04S
NEWARK/LIBERTY CLOUDY    73  56  54 E8        30.02S
BRNX BOT. GARD   N/A     68  59  73 SE3       30.05S
TETERBORO      CLOUDY    70  60  70 S8        30.03R
$$

NYZ177-179-078>081-222300-
LONG ISLAND NEW YORK

CITY           SKY/WX    TMP DP  RH WIND       PRES   REMARKS
FARMINGDALE    CLOUDY    70  59  68 SE9       30.03S
ISLIP          PTSUNNY   73  55  53 NE9       30.02R
SHIRLEY        CLOUDY    73  56  54 CALM      30.04R
WESTHAMPTON    MOSUNNY   73  61  65 NE6       30.05R
MONTAUK POINT    N/A     69  62  78 VRB5      30.05S
$$

NYZ052-065-067-222300-
HUDSON VALLEY

CITY           SKY/WX    TMP DP  RH WIND       PRES   REMARKS
WHITE PLAINS   CLOUDY    70  58  65 E8        30.04R
NEWBURGH       CLOUDY    66  64  94 E8        30.06R FOG
MONTGOMERY     CLOUDY    67  63  87 NE5       30.05R
POUGHKEEPSIE   CLOUDY    71  63  75 CALM      30.03R
ALBANY         LGT RAIN  68  61  78 CALM      30.07R
$$

NJZ001-105-106-008-010-013-015-019>022-104-222300-
NEW JERSEY

CITY           SKY/WX    TMP DP  RH WIND       PRES   REMARKS
NEWARK/LIBERTY CLOUDY    73  56  54 E8        30.02S
TETERBORO      CLOUDY    70  60  70 S8        30.03R
CALDWELL       CLOUDY    70  61  73 SE8       30.04R
MORRISTOWN     CLOUDY    72  63  73 SE9       30.02S
SOMERVILLE     CLOUDY    76  63  64 CALM      30.00R
LINDEN         CLOUDY    76  64  66 SE9       30.04S
SUSSEX         CLOUDY    72  65  78 N6        30.03S
ANDOVER          N/A     71  64  78 CALM      30.04R
TRENTON        CLOUDY    74  62  66 SE5       30.00S
MILLVILLE      PTSUNNY   75  65  70 E8        29.99R
ATLANTIC CITY  PTSUNNY   73  64  73 NE12G18   30.00R
WRIGHTSTOWN    MOSUNNY   74  64  70 E6        29.98S
TOMS RIVER     MOSUNNY   73  63  68 E6        30.01S
BELMAR         MOSUNNY   72  61  68 E9        30.02R
$$

PAZ047>061-062-071-222300-
EASTERN PENNSYLVANIA

CITY           SKY/WX    TMP DP  RH WIND       PRES   REMARKS
PHILADELPHIA   CLOUDY    76  65  68 E9        29.99R
ALLENTOWN      CLOUDY    75  64  68 E7        30.01R
SCRANTON       CLOUDY    73  65  75 SE5       30.00S
$$

CTZ002-004>006-009-010-012-RIZ004-006-007-MAZ004-011-015-222300-
SOUTHERN NEW ENGLAND
 IN CT

CITY           SKY/WX    TMP DP  RH WIND       PRES   REMARKS
BRADLEY INTL   CLOUDY    70  62  76 N7        30.06R
HARTFORD       CLOUDY    70  61  73 N6        30.05R
DANBURY        CLOUDY    70  60  70 SE8       30.06R
WTRBRY/OXFORD  CLOUDY    68  59  73 E5        30.08R
BRIDGEPORT     CLOUDY    72  62  71 E10       30.04S
MERIDEN        CLOUDY    72  59  63 NE7       30.05R
NEW HAVEN      CLOUDY    73  64  73 E9        30.04S
CHESTER        CLOUDY    70  63  78 E3        30.06S
GROTON         CLOUDY    69  61  75 E10       30.04R
WILLIMANTIC    CLOUDY    69  63  81 NE7       30.07R

 IN RI

CITY           SKY/WX    TMP DP  RH WIND       PRES   REMARKS
PROVIDENCE     PTSUNNY   72  60  66 NE13      30.06R
BLOCK ISLAND   CLOUDY    68  57  68 E8        30.05S
WESTERLY       CLOUDY    70  60  70 E9        30.05S

 IN MA

CITY           SKY/WX    TMP DP  RH WIND       PRES   REMARKS
BOSTON         PTSUNNY   69  62  78 NE12      30.09S
WORCESTER      CLOUDY    66  57  72 E9        30.10R
WESTFIELD      CLOUDY    69  63  81 N7        30.07R
PROVINCETOWN   PTSUNNY   68  63  83 MISG      30.08S
NANTUCKET      SUNNY     67  59  75 NE13      30.04S
$$

ANZ330-335-338-340-345-350-353-355-222300-
COASTAL MARINE OBSERVATIONS


STATION/POSITION TIME  SKY/WX   TEMP    WIND        PRES    VSBY  WAVE
                                AIR SEA DIR/SP/G                  HT/PER
                 (UTC)          (F)     (DEG/KT/KT) (MB)    (MI)  (FT/S)
NY HARB ENTRANCE NOT AVBL
4S FIRE IS       NOT AVBL
23SW MTP         2200            69 71              1015.9          3/ 7
HUDSON CANYON    2200            72 73   60/ 12/ 14 1015.2          3/ 7
EXECUTION ROCKS  2200            72 73   90/ 10/ 14   N/A
WESTERN LI SOUND 2200            72      90/ 16/ 17   N/A           3/ 4
CENTRAL LI SOUND 2100            70 72   80/ 12/ 14   N/A           2/ 3
EASTERN LI SOUND 2100            70 69  100/ 10/ 14   N/A
ROBBINS REEF     2200            71      90/ 10/ 12   N/A
$$


>>>>>>>>>>>>>>>>>>>>>>>>>>>> KEY <<<<<<<<<<<<<<<<<<<<<<<<<<<
>                                                          <
>     SKY/WX - SKY CONDITION/PRESENT WEATHER               <
>     TMP    - TEMPERATURE IN FAHRENHEIT                   <
>     DP     - DEWPOINT IN FAHRENHEIT                      <
>     RH     - RELATIVE HUMIDITY IN PERCENT                <
>     WIND   - DIRECTION AND SPEED IN MPH                  <
>     PRES   - MEAN SEA LEVEL PRESSURE IN INCHES OF HG     <
>     WCI    - WIND CHILL INDEX                            <
>     VSB    - VISIBILITY IN MILES                         <
>     HX     - HEAT INDEX                                  <
>     TC     - TEMPERATURE IN CELSIUS                      <
>     VRB    - VARIABLE WIND DIRECTION                     <
>                                                          <
>>>>>>>>>>>>>>>>>>>>>>>>>>>> KEY <<<<<<<<<<<<<<<<<<<<<<<<<<<





USA.gov is the U.S. government's official web portal to all federal, state and local government web resources and services.